Location: Il Ritiro
(43.4167°N, 13.1333°E)
Time: 17:07:09
(UTC+00:00)

Cosmos 1953 Rocket - Pass Details

Date: 05 July 2020
Orbit: 605 x 634 km, 82.5° (Epoch: 11 August)

Event Time Altitude Azimuth Distance (km) Brightness Sun altitude
Exits shadow 19:56:02 12° 152° (SSE) 1,797 5.3 -10.0°
Maximum altitude 19:59:30 33° 91° (E) 1,016 4.3 -10.5°
Drops below altitude 10° 20:03:24 10° 27° (NNE) 1,964 6.4 -11.0°
Sets 20:05:46 0° 18° (NNE) 2,874 7.4 -11.3°
